Location: Lake Crest
(37.6062°N, 88.9176°W)
Time: 23:01:14
(UTC+00:00)

Cosmos 1867 - Pass Details

Date: 15 December 2019
Orbit: 777 x 799 km, 65.0° (Epoch: 24 January)

Event Time Altitude Azimuth Distance (km) Brightness Sun altitude
Rises 00:24:09 0° 327° (NNW) 3,308 7.0 -20.3°
Reaches altitude 10° 00:26:36 10° 325° (NW) 2,373 6.3 -20.8°
Maximum altitude 00:32:01 68° 243° (WSW) 854 3.9 -21.8°
Drops below altitude 10° 00:37:23 10° 161° (SSE) 2,349 5.9 -22.9°
Sets 00:39:47 0° 159° (SSE) 3,271 6.7 -23.3°
